Regional Weather Roundup
Issued by NWS Memphis, TN

Home | Current Version | Previous Version | Text Only | Print | Product List | Glossary On
Versions: 1 2 3 4 5 6 7 8 9 10 11 12 13 14 15 16 17 18 19 20 21 22 23 24 25 26 27 28 29 30 31 32 33 34 35 36 37 38 39 40 41 42 43 44 45 46 47 48 49 50
000
ASUS44 KMEG 081510
RWRMEG
MEMPHIS CWA HOURLY WEATHER ROUNDUP
NATIONAL WEATHER SERVICE MEMPHIS TN
900 AM CST MON FEB 08 2016

...WEST TENNESSEE...

CITY           SKY/WX    TMP DP  RH WIND       PRES   REMARKS
MEMPHIS INTL   MOSUNNY   45  23  42 NW22G33   29.94R
NWS MEMPHIS      N/A     42 N/A N/A MISG        N/A
JACKSON        MOSUNNY   44  24  45 NW18G25   29.88R
DYERSBURG      CLOUDY    39  25  56 W8        29.90R WCI  34
UNION CITY     PTSUNNY   39  27  60 W10       29.84S WCI  32


...EASTERN ARKANSAS...

CITY           SKY/WX    TMP DP  RH WIND       PRES   REMARKS
JONESBORO      CLOUDY    40  20  44 NW26G40   29.93R WCI  29
WEST MEMPHIS   SUNNY     43  26  51 NW12G23   29.94R
BATESVILLE     PTSUNNY   43  19  39 W12G18    29.97S
NEWPORT        PTSUNNY   44  21  40 NW23G29   29.97S
WALNUT RIDGE   CLOUDY    39  18  41 NW25      29.94R WCI  28
BLYTHEVILLE    CLOUDY    42  27  55 W14G20    29.90R
NW BLYTHEVILLE PTSUNNY   41  27  56 W13G20    29.91R
SEARCY         MOSUNNY   43  21  42 NW14      30.02R
STUTTGART      SUNNY     45  25  45 W22G28    30.02R
PINE BLUFF     SUNNY     44  20  38 NW24G38   30.06R
MONTICELLO     SUNNY     46  22  38 W13G22    30.05R


...NORTH MISSISSIPPI...

CITY           SKY/WX    TMP DP  RH WIND       PRES   REMARKS
TUPELO         SUNNY     46  22  38 NW8       29.94R
OXFORD         SUNNY     45  21  39 W16G22    29.96S
OLIVE BRANCH   MOSUNNY   41  27  56 W21G30    29.91S
TUNICA         SUNNY     43  25  49 W16G32    29.98R
CORINTH        MOSUNNY   45  23  42 NW18      29.90R
GREENWOOD      SUNNY     49  23  36 VRB7      30.02R
COLUMBUS       SUNNY     47  28  46 NW20      29.95R
STARKVILLE     FAIR      46  27  46 NW10G20   29.97R
GOLDEN TRIANGL SUNNY     46  28  49 NW12G21   29.95R


...SOUTHEAST MISSOURI...

CITY           SKY/WX    TMP DP  RH WIND       PRES   REMARKS
WEST PLAINS    CLOUDY    35  18  49 W17G25    29.90S WCI  25
POPLAR BLUFF   CLOUDY    38  21  50 NW16G25   29.88R WCI  29
CAPE GIRARDEAU CLOUDY    37  25  61 NW20G26   29.85R WCI  27


...NORTHWEST ALABAMA...

CITY           SKY/WX    TMP DP  RH WIND       PRES   REMARKS
MUSCLE SHOALS  SUNNY     45  24  43 W17       29.88R


...MIDDLE TENNESSEE...

CITY           SKY/WX    TMP DP  RH WIND       PRES   REMARKS
NASHVILLE      PTSUNNY   44  24  45 W12G21    29.80R
CLARKSVILLE    SUNNY     42  27  55 NW17      29.80R
COLUMBIA       SUNNY     43  27  52 NW7       29.81S


...WESTERN KENTUCKY...

CITY           SKY/WX    TMP DP  RH WIND       PRES   REMARKS
PADUCAH        CLOUDY    40  26  57 W12G20    29.81R WCI  33
FORT CAMPBELL  MOSUNNY   40  27  58 W17       29.79R WCI  32


...CENTRAL ARKANSAS...

CITY           SKY/WX    TMP DP  RH WIND       PRES   REMARKS
LITTLE ROCK    MOSUNNY   44  20  38 NW17G32   30.05R


SKY/WX REPORTED AS FAIR MEANS FEW OR NO CLOUDS BELOW
12 THOUSAND FEET.




USA.gov is the U.S. government's official web portal to all federal, state and local government web resources and services.